Regional Weather Roundup
Issued by NWS New Orleans/Baton Rouge, LA

Home | Current Version | Previous Version | Text Only | Print | Product List | Glossary Off
Versions: 1 2 3 4 5 6 7 8 9 10 11 12 13 14 15 16 17 18 19 20 21 22 23 24 25 26 27 28 29 30 31 32 33 34 35 36 37 38 39 40 41 42 43 44 45 46 47 48 49 50

417
ASUS44 KLIX 212105
RWRLIX
NEW ORLEANS REGIONAL WEATHER ROUNDUP
NATIONAL WEATHER SERVICE NEW ORLEANS LA
400 PM CDT THU AUG 21 2014

NOTE: "FAIR" INDICATES FEW OR NO CLOUDS BELOW 12,000 FEET WITH NO
      SIGNIFICANT WEATHER AND/OR OBSTRUCTIONS TO VISIBILITY.
      SKY/WX - SKY CONDITION AND SIGNIFICANT WEATHER.
      TMP - AIR TEMPERATURE.     DP    - DEWPOINT TEMPERATURE.
      RH  - RELATIVE HUMIDITY.   PRES  - PRESSURE.
      HI  - HEAT INDEX.          WCI   - WIND CHILL INDEX.

*  THESE STATIONS ARE NOT NWS OR FAA STATIONS AND ARE NOT UNDER
   NWS QUALITY CONTROL.

LAZ038-040-048-061>063-065>067-069-212200-
SOUTHEAST LOUISIANA

CITY           SKY/WX    TMP DP  RH WIND       PRES   REMARKS
N.O. AUDUBON   NOT AVBL
N.O. INTL ARPT TSTM      83  32  16 SE23G38   30.09S
N.O. LAKEFRONT PTSUNNY   90  75  61 CALM      30.10S HX 100
N.O. DOWNTOWN* MOCLDY    84  72  65 S5        30.11R
SLIDELL        MOSUNNY   93  71  48 SW9       30.07F HX 100
BATON ROUGE    CLOUDY    84  74  71 SW13      30.10R THUNDER
BOOTHVILLE     PTSUNNY   89  76  65 SE6       30.10F HX 100
BELLE CHASSE   PTSUNNY   87  73  62 N6        30.08S THUNDER
BOGALUSA*        N/A     96  68  39 CALM      30.09S HX 100
GALLIANO*      NOT AVBL
NEW ROADS*     CLOUDY    76  73  90 NW6       30.10F
GONZALES*      MOCLDY    86  78  79 S9        30.11R HX  98
HAMMOND*       MOSUNNY   91  72  52 SE6       30.09F HX  98
HOUMA*         MOSUNNY   82  72  69 S6        30.11F
PORT FOURCHON* PTCLDY    90  75  62 S9        30.11F HX 100

$$

MSZ070-080>082-212200-
SOUTHERN MISSISSIPPI

CITY           SKY/WX    TMP DP  RH WIND       PRES   REMARKS
MCCOMB         PTSUNNY   90  71  53 W5        30.10S HX  96
GULFPORT       MOSUNNY   92  72  51 VRB6      30.07F HX  99
BILOXI         MOSUNNY   92  73  54 S10       30.08F HX 100
PASCAGOULA     SUNNY     91  74  57 S8        30.07F HX 100
STENNIS ARPT*  MOSUNNY  N/A N/A N/A S7        30.08F

$$

COASTAL OBSERVATIONS
LAKE AND NEARSHORE STATIONS

STATION/POSITION TIME  TEMP    WIND        PRES    WAVE
                       AIR SEA DIR/SP/G            HT/PER
                 (UTC) (F)     (DEG/KT/KT) (MB)    (FT/S)
PASCAGOULA       2100   89     210/  9/ 11 1018.0
WAVELAND YACHT   2100   88     180/  7/ 11 1018.2
GRAND ISLE       2100   89 89  210/  5/  9 1020.0
SOUTHWEST PASS   2100   89 89  190/  5/  6 1019.6
NEW CANAL        2100   89 85  180/  5/  7 1019.8
SHELL BEACH      2100   87 84  110/  5/  7 1018.9

OFFSHORE STATIONS

STATION/POSITION TIME  TEMP    WIND        PRES    WAVE
                       AIR SEA DIR/SP/G            HT/PER
                 (UTC) (F)     (DEG/KT/KT) (MB)    (FT/S)
64 S DAUPHIN ISL 2044   86 92  100/  4/  6 1019.3

$$




USA.gov is the U.S. government's official web portal to all federal, state and local government web resources and services.